Time,TemperatureF,DewpointF,PressureIn,WindDirection,WindDirectionDegrees,WindSpeedMPH,WindSpeedGustMPH,Humidity,HourlyPrecipIn,Conditions,Clouds,dailyrainin,SoftwareType,DateUTC
2013-02-25 00:00:00,35.3,32.9,29.99,NNW,338,0.0,0.0,91,0.00,,,0.00,LWC V2.00 B2112,2013-02-25 05:00:00,
2013-02-25 00:05:00,35.2,32.8,29.99,NNW,338,0.0,0.0,91,0.00,,,0.00,LWC V2.00 B2112,2013-02-25 05:05:00,
2013-02-25 00:10:00,35.0,32.6,29.99,NNW,338,0.0,0.0,91,0.00,,,0.00,LWC V2.00 B2112,2013-02-25 05:10:00,
2013-02-25 00:15:00,34.9,32.5,29.99,NNW,338,0.0,0.0,91,0.00,,,0.00,LWC V2.00 B2112,2013-02-25 05:15:00,
2013-02-25 00:20:00,34.7,32.3,30.00,NNW,338,0.0,0.0,91,0.00,,,0.00,LWC V2.00 B2112,2013-02-25 05:20:00,
2013-02-25 00:25:00,34.6,32.2,30.00,NNW,338,0.0,0.0,91,0.00,,,0.00,LWC V2.00 B2112,2013-02-25 05:25:00,
2013-02-25 00:30:00,34.4,32.0,30.00,NNW,338,0.0,0.0,91,0.00,,,0.00,LWC V2.00 B2112,2013-02-25 05:30:00,
2013-02-25 00:35:00,34.3,32.2,30.01,NNW,338,0.0,0.0,92,0.00,,,0.00,LWC V2.00 B2112,2013-02-25 05:35:00,
2013-02-25 00:40:00,34.3,32.2,30.01,NNW,338,0.0,0.0,92,0.00,,,0.00,LWC V2.00 B2112,2013-02-25 05:40:00,
2013-02-25 00:45:00,34.1,32.0,30.01,NNW,338,0.0,0.0,92,0.00,,,0.00,LWC V2.00 B2112,2013-02-25 05:45:00,
2013-02-25 00:50:00,34.0,31.9,30.02,NNW,338,0.0,0.0,92,0.00,,,0.00,LWC V2.00 B2112,2013-02-25 05:50:00,
2013-02-25 00:55:00,34.0,31.9,30.02,NNW,338,0.0,0.0,92,0.00,,,0.00,LWC V2.00 B2112,2013-02-25 05:55:00,
2013-02-25 01:00:00,33.8,31.7,30.02,NNW,338,0.0,0.0,92,0.00,,,0.00,LWC V2.00 B2112,2013-02-25 06:00:00,
2013-02-25 01:05:00,33.7,31.6,30.02,NNW,338,0.0,0.0,92,0.00,,,0.00,LWC V2.00 B2112,2013-02-25 06:05:00,
2013-02-25 01:10:00,33.7,31.6,30.02,NNW,338,0.0,0.0,92,0.00,,,0.00,LWC V2.00 B2112,2013-02-25 06:10:00,
2013-02-25 01:15:00,33.5,31.4,30.02,NNW,338,0.0,0.0,92,0.00,,,0.00,LWC V2.00 B2112,2013-02-25 06:15:00,
2013-02-25 01:20:00,33.5,31.4,30.03,NNW,338,0.0,0.0,92,0.00,,,0.00,LWC V2.00 B2112,2013-02-25 06:20:00,
2013-02-25 01:25:00,33.7,31.6,30.03,East,83,2.0,2.0,92,0.00,,,0.00,LWC V2.00 B2112,2013-02-25 06:25:00,
2013-02-25 01:30:00,34.3,32.0,30.03,ENE,74,0.0,0.0,91,0.00,,,0.00,LWC V2.00 B2112,2013-02-25 06:30:00,
2013-02-25 01:35:00,34.6,32.2,30.03,ENE,74,0.0,0.0,91,0.00,,,0.00,LWC V2.00 B2112,2013-02-25 06:35:00,
2013-02-25 01:40:00,34.9,32.0,30.03,North,11,0.0,1.0,89,0.00,,,0.00,LWC V2.00 B2112,2013-02-25 06:40:00,
2013-02-25 01:45:00,35.3,31.8,30.03,North,11,0.0,0.0,87,0.00,,,0.00,LWC V2.00 B2112,2013-02-25 06:45:00,
2013-02-25 01:50:00,35.5,31.7,30.04,North,351,0.0,0.0,86,0.00,,,0.00,LWC V2.00 B2112,2013-02-25 06:50:00,
2013-02-25 01:55:00,35.9,30.6,30.04,North,0,0.0,1.0,81,0.00,,,0.00,LWC V2.00 B2112,2013-02-25 06:55:00,
2013-02-25 02:00:00,36.3,29.8,30.04,East,86,0.0,0.0,77,0.00,,,0.00,LWC V2.00 B2112,2013-02-25 07:00:00,
2013-02-25 02:05:00,36.6,29.1,30.05,ESE,103,0.0,1.0,74,0.00,,,0.00,LWC V2.00 B2112,2013-02-25 07:05:00,
2013-02-25 02:10:00,36.9,29.1,30.05,East,98,0.0,2.0,73,0.00,,,0.00,LWC V2.00 B2112,2013-02-25 07:10:00,
2013-02-25 02:15:00,36.9,28.0,30.05,ESE,110,0.0,0.0,70,0.00,,,0.00,LWC V2.00 B2112,2013-02-25 07:15:00,
2013-02-25 02:20:00,37.0,27.8,30.05,ESE,110,0.0,0.0,69,0.00,,,0.00,LWC V2.00 B2112,2013-02-25 07:20:00,
2013-02-25 02:25:00,37.0,27.8,30.05,ESE,110,0.0,0.0,69,0.00,,,0.00,LWC V2.00 B2112,2013-02-25 07:25:00,
2013-02-25 02:30:00,36.9,27.3,30.05,SW,214,0.0,0.0,68,0.00,,,0.00,LWC V2.00 B2112,2013-02-25 07:30:00,
2013-02-25 02:35:00,36.8,27.6,30.05,SW,214,0.0,0.0,69,0.00,,,0.00,LWC V2.00 B2112,2013-02-25 07:35:00,
2013-02-25 02:40:00,36.6,27.8,30.05,SW,214,0.0,0.0,70,0.00,,,0.00,LWC V2.00 B2112,2013-02-25 07:40:00,
2013-02-25 02:45:00,36.5,27.0,30.05,SW,214,0.0,0.0,68,0.00,,,0.00,LWC V2.00 B2112,2013-02-25 07:45:00,
2013-02-25 02:50:00,36.3,27.1,30.05,SW,214,0.0,0.0,69,0.00,,,0.00,LWC V2.00 B2112,2013-02-25 07:50:00,
2013-02-25 02:55:00,36.2,27.4,30.05,SW,214,0.0,0.0,70,0.00,,,0.00,LWC V2.00 B2112,2013-02-25 07:55:00,
2013-02-25 03:00:00,36.0,27.2,30.05,SW,234,0.0,0.0,70,0.00,,,0.00,LWC V2.00 B2112,2013-02-25 08:00:00,
2013-02-25 03:05:00,35.9,27.1,30.06,SW,234,0.0,0.0,70,0.00,,,0.00,LWC V2.00 B2112,2013-02-25 08:05:00,
2013-02-25 03:10:00,35.8,27.7,30.06,SW,234,0.0,0.0,72,0.00,,,0.00,LWC V2.00 B2112,2013-02-25 08:10:00,
2013-02-25 03:15:00,35.6,27.5,30.06,SW,234,0.0,0.0,72,0.00,,,0.00,LWC V2.00 B2112,2013-02-25 08:15:00,
2013-02-25 03:20:00,35.3,27.5,30.05,SW,234,0.0,1.0,73,0.00,,,0.00,LWC V2.00 B2112,2013-02-25 08:20:00,
2013-02-25 03:25:00,35.2,27.1,30.05,SW,234,0.0,0.0,72,0.00,,,0.00,LWC V2.00 B2112,2013-02-25 08:25:00,
2013-02-25 03:30:00,35.0,27.2,30.05,SW,234,0.0,0.0,73,0.00,,,0.00,LWC V2.00 B2112,2013-02-25 08:30:00,
2013-02-25 03:35:00,34.9,26.8,30.04,SW,234,0.0,0.0,72,0.00,,,0.00,LWC V2.00 B2112,2013-02-25 08:35:00,
2013-02-25 03:40:00,34.9,26.8,30.04,SW,234,0.0,0.0,72,0.00,,,0.00,LWC V2.00 B2112,2013-02-25 08:40:00,
2013-02-25 03:45:00,34.7,26.3,30.04,SW,232,0.0,1.0,71,0.00,,,0.00,LWC V2.00 B2112,2013-02-25 08:45:00,
2013-02-25 03:50:00,34.7,25.9,30.05,WSW,238,0.0,0.0,70,0.00,,,0.00,LWC V2.00 B2112,2013-02-25 08:50:00,
2013-02-25 03:55:00,34.7,25.6,30.05,WSW,238,0.0,0.0,69,0.00,,,0.00,LWC V2.00 B2112,2013-02-25 08:55:00,
2013-02-25 04:00:00,34.7,25.6,30.05,WSW,238,0.0,0.0,69,0.00,,,0.00,LWC V2.00 B2112,2013-02-25 09:00:00,
2013-02-25 04:05:00,34.6,25.1,30.05,WSW,238,0.0,0.0,68,0.00,,,0.00,LWC V2.00 B2112,2013-02-25 09:05:00,
2013-02-25 04:10:00,34.6,25.8,30.05,WSW,238,0.0,0.0,70,0.00,,,0.00,LWC V2.00 B2112,2013-02-25 09:10:00,
2013-02-25 04:15:00,34.4,25.6,30.05,WSW,238,0.0,0.0,70,0.00,,,0.00,LWC V2.00 B2112,2013-02-25 09:15:00,
2013-02-25 04:20:00,34.3,25.2,30.07,WSW,238,0.0,0.0,69,0.00,,,0.00,LWC V2.00 B2112,2013-02-25 09:20:00,
2013-02-25 04:25:00,34.1,25.7,30.07,WSW,238,0.0,0.0,71,0.00,,,0.00,LWC V2.00 B2112,2013-02-25 09:25:00,
2013-02-25 04:30:00,34.1,25.7,30.07,WSW,238,0.0,0.0,71,0.00,,,0.00,LWC V2.00 B2112,2013-02-25 09:30:00,
2013-02-25 04:35:00,34.0,25.3,30.07,WSW,238,0.0,1.0,70,0.00,,,0.00,LWC V2.00 B2112,2013-02-25 09:35:00,
2013-02-25 04:40:00,34.0,25.9,30.07,WSW,238,0.0,0.0,72,0.00,,,0.00,LWC V2.00 B2112,2013-02-25 09:40:00,
2013-02-25 04:45:00,33.8,25.7,30.07,WSW,238,0.0,0.0,72,0.00,,,0.00,LWC V2.00 B2112,2013-02-25 09:45:00,
2013-02-25 04:50:00,33.7,25.6,30.08,WSW,238,0.0,0.0,72,0.00,,,0.00,LWC V2.00 B2112,2013-02-25 09:50:00,
2013-02-25 04:55:00,33.7,25.6,30.08,WSW,238,0.0,0.0,72,0.00,,,0.00,LWC V2.00 B2112,2013-02-25 09:55:00,
2013-02-25 05:00:00,33.5,25.1,30.08,WSW,238,0.0,0.0,71,0.00,,,0.00,LWC V2.00 B2112,2013-02-25 10:00:00,
2013-02-25 05:05:00,33.5,25.8,30.09,WSW,238,0.0,0.0,73,0.00,,,0.00,LWC V2.00 B2112,2013-02-25 10:05:00,
2013-02-25 05:10:00,33.4,25.4,30.09,WSW,238,0.0,1.0,72,0.00,,,0.00,LWC V2.00 B2112,2013-02-25 10:10:00,
2013-02-25 05:15:00,33.4,25.4,30.09,WSW,238,0.0,0.0,72,0.00,,,0.00,LWC V2.00 B2112,2013-02-25 10:15:00,
2013-02-25 05:20:00,33.2,25.2,30.10,WSW,238,0.0,0.0,72,0.00,,,0.00,LWC V2.00 B2112,2013-02-25 10:20:00,
2013-02-25 05:25:00,33.1,25.1,30.10,WSW,238,0.0,0.0,72,0.00,,,0.00,LWC V2.00 B2112,2013-02-25 10:25:00,
2013-02-25 05:30:00,33.1,25.1,30.10,SE,136,0.0,1.0,72,0.00,,,0.00,LWC V2.00 B2112,2013-02-25 10:30:00,
2013-02-25 05:35:00,32.9,24.9,30.09,SE,136,0.0,0.0,72,0.00,,,0.00,LWC V2.00 B2112,2013-02-25 10:35:00,
2013-02-25 05:40:00,32.9,25.2,30.09,SE,136,0.0,0.0,73,0.00,,,0.00,LWC V2.00 B2112,2013-02-25 10:40:00,
2013-02-25 05:45:00,32.8,24.8,30.09,SE,136,0.0,0.0,72,0.00,,,0.00,LWC V2.00 B2112,2013-02-25 10:45:00,
2013-02-25 05:50:00,32.8,24.8,30.10,East,93,0.0,0.0,72,0.00,,,0.00,LWC V2.00 B2112,2013-02-25 10:50:00,
2013-02-25 05:55:00,32.8,24.8,30.10,East,93,0.0,0.0,72,0.00,,,0.00,LWC V2.00 B2112,2013-02-25 10:55:00,
2013-02-25 06:00:00,32.8,24.4,30.10,East,93,0.0,0.0,71,0.00,,,0.00,LWC V2.00 B2112,2013-02-25 11:00:00,
2013-02-25 06:05:00,32.8,24.8,30.10,East,93,0.0,0.0,72,0.00,,,0.00,LWC V2.00 B2112,2013-02-25 11:05:00,
2013-02-25 06:10:00,32.7,24.7,30.10,East,93,0.0,1.0,72,0.00,,,0.00,LWC V2.00 B2112,2013-02-25 11:10:00,
2013-02-25 06:15:00,32.7,24.4,30.10,ENE,67,0.0,1.0,71,0.00,,,0.00,LWC V2.00 B2112,2013-02-25 11:15:00,
2013-02-25 06:20:00,32.8,23.8,30.11,ENE,67,0.0,0.0,69,0.00,,,0.00,LWC V2.00 B2112,2013-02-25 11:20:00,
2013-02-25 06:25:00,32.8,24.1,30.11,ENE,66,0.0,0.0,70,0.00,,,0.00,LWC V2.00 B2112,2013-02-25 11:25:00,
2013-02-25 06:30:00,32.8,24.1,30.11,ENE,67,0.0,0.0,70,0.00,,,0.00,LWC V2.00 B2112,2013-02-25 11:30:00,
2013-02-25 06:35:00,32.8,24.1,30.12,ENE,66,0.0,0.0,70,0.00,,,0.00,LWC V2.00 B2112,2013-02-25 11:35:00,
2013-02-25 06:40:00,32.7,24.0,30.12,ENE,66,0.0,0.0,70,0.00,,,0.00,LWC V2.00 B2112,2013-02-25 11:40:00,
2013-02-25 06:45:00,32.7,24.0,30.12,ENE,67,0.0,0.0,70,0.00,,,0.00,LWC V2.00 B2112,2013-02-25 11:45:00,
2013-02-25 06:50:00,32.7,24.0,30.12,ENE,67,0.0,0.0,70,0.00,,,0.00,LWC V2.00 B2112,2013-02-25 11:50:00,
2013-02-25 06:55:00,32.5,23.5,30.12,NE,38,0.0,1.0,69,0.00,,,0.00,LWC V2.00 B2112,2013-02-25 11:55:00,
2013-02-25 07:00:00,32.5,23.8,30.12,NE,38,0.0,0.0,70,0.00,,,0.00,LWC V2.00 B2112,2013-02-25 12:00:00,
2013-02-25 07:05:00,32.5,23.5,30.12,NE,39,0.0,0.0,69,0.00,,,0.00,LWC V2.00 B2112,2013-02-25 12:05:00,
2013-02-25 07:10:00,32.5,23.8,30.12,NE,39,0.0,0.0,70,0.00,,,0.00,LWC V2.00 B2112,2013-02-25 12:10:00,
2013-02-25 07:15:00,32.4,23.7,30.12,NE,39,0.0,0.0,70,0.00,,,0.00,LWC V2.00 B2112,2013-02-25 12:15:00,
2013-02-25 07:20:00,32.4,23.7,30.12,NE,39,0.0,0.0,70,0.00,,,0.00,LWC V2.00 B2112,2013-02-25 12:20:00,
2013-02-25 07:25:00,32.4,23.4,30.12,NE,39,0.0,1.0,69,0.00,,,0.00,LWC V2.00 B2112,2013-02-25 12:25:00,
2013-02-25 07:30:00,32.4,23.4,30.12,North,350,0.0,0.0,69,0.00,,,0.00,LWC V2.00 B2112,2013-02-25 12:30:00,
2013-02-25 07:35:00,32.5,23.5,30.12,North,350,0.0,1.0,69,0.00,,,0.00,LWC V2.00 B2112,2013-02-25 12:35:00,
2013-02-25 07:40:00,32.5,23.5,30.12,North,350,0.0,0.0,69,0.00,,,0.00,LWC V2.00 B2112,2013-02-25 12:40:00,
2013-02-25 07:43:00,32.5,23.1,30.12,North,0,0.0,1.0,68,0.00,,,0.00,LWC V2.00 B2112,2013-02-25 12:43:00,
2013-02-25 07:48:00,32.7,23.7,30.12,NNE,12,0.0,0.0,69,0.00,,,0.00,LWC V2.00 B2112,2013-02-25 12:48:00,
2013-02-25 07:53:00,32.8,23.4,30.13,NNE,13,0.0,1.0,68,0.00,,,0.00,LWC V2.00 B2112,2013-02-25 12:53:00,
2013-02-25 07:58:00,32.8,23.4,30.13,NNE,13,0.0,0.0,68,0.00,,,0.00,LWC V2.00 B2112,2013-02-25 12:58:00,
2013-02-25 08:03:00,32.9,23.5,30.13,NNE,13,0.0,1.0,68,0.00,,,0.00,LWC V2.00 B2112,2013-02-25 13:03:00,
2013-02-25 08:08:00,33.1,23.0,30.14,NNE,13,0.0,0.0,66,0.00,,,0.00,LWC V2.00 B2112,2013-02-25 13:08:00,
2013-02-25 08:13:00,33.4,23.6,30.14,NNW,347,0.0,0.0,67,0.00,,,0.00,LWC V2.00 B2112,2013-02-25 13:13:00,
2013-02-25 08:18:00,33.5,23.7,30.14,NNW,347,0.0,0.0,67,0.00,,,0.00,LWC V2.00 B2112,2013-02-25 13:18:00,
2013-02-25 08:23:00,33.7,23.9,30.16,NNW,347,0.0,0.0,67,0.00,,,0.00,LWC V2.00 B2112,2013-02-25 13:23:00,
2013-02-25 08:28:00,33.8,22.9,30.16,NNW,347,0.0,0.0,64,0.00,,,0.00,LWC V2.00 B2112,2013-02-25 13:28:00,
2013-02-25 08:33:00,34.1,22.8,30.16,ENE,69,0.0,1.0,63,0.00,,,0.00,LWC V2.00 B2112,2013-02-25 13:33:00,
2013-02-25 08:38:00,34.3,23.0,30.17,ENE,69,0.0,0.0,63,0.00,,,0.00,LWC V2.00 B2112,2013-02-25 13:38:00,
2013-02-25 08:43:00,34.4,22.0,30.17,ENE,76,0.0,1.0,60,0.00,,,0.00,LWC V2.00 B2112,2013-02-25 13:43:00,
2013-02-25 08:48:00,34.6,22.2,30.17,ENE,76,0.0,0.0,60,0.00,,,0.00,LWC V2.00 B2112,2013-02-25 13:48:00,
2013-02-25 08:53:00,34.9,22.8,30.17,North,0,0.0,1.0,61,0.00,,,0.00,LWC V2.00 B2112,2013-02-25 13:53:00,
2013-02-25 08:58:00,35.2,22.7,30.17,North,0,0.0,0.0,60,0.00,,,0.00,LWC V2.00 B2112,2013-02-25 13:58:00,
2013-02-25 09:03:00,35.5,23.4,30.17,NNE,15,0.0,1.0,61,0.00,,,0.00,LWC V2.00 B2112,2013-02-25 14:03:00,
2013-02-25 09:08:00,35.6,22.7,30.17,North,349,0.0,1.0,59,0.00,,,0.00,LWC V2.00 B2112,2013-02-25 14:08:00,
2013-02-25 09:13:00,35.9,22.2,30.17,NW,321,6.0,6.0,57,0.00,,,0.00,LWC V2.00 B2112,2013-02-25 14:13:00,
2013-02-25 09:18:00,35.9,22.6,30.17,ENE,77,0.0,1.0,58,0.00,,,0.00,LWC V2.00 B2112,2013-02-25 14:18:00,
2013-02-25 09:23:00,36.0,22.7,30.18,NE,42,0.0,1.0,58,0.00,,,0.00,LWC V2.00 B2112,2013-02-25 14:23:00,
2013-02-25 09:28:00,36.3,21.7,30.18,East,82,0.0,0.0,55,0.00,,,0.00,LWC V2.00 B2112,2013-02-25 14:28:00,
2013-02-25 09:33:00,36.5,22.3,30.18,East,86,0.0,1.0,56,0.00,,,0.00,LWC V2.00 B2112,2013-02-25 14:33:00,
2013-02-25 09:38:00,36.6,22.8,30.18,SW,232,0.0,0.0,57,0.00,,,0.00,LWC V2.00 B2112,2013-02-25 14:38:00,
2013-02-25 09:43:00,36.9,22.3,30.18,ESE,102,0.0,2.0,55,0.00,,,0.00,LWC V2.00 B2112,2013-02-25 14:43:00,
2013-02-25 09:48:00,37.0,21.9,30.18,East,83,1.0,1.0,54,0.00,,,0.00,LWC V2.00 B2112,2013-02-25 14:48:00,
2013-02-25 09:53:00,37.3,22.6,30.18,ENE,71,0.0,0.0,55,0.00,,,0.00,LWC V2.00 B2112,2013-02-25 14:53:00,
2013-02-25 09:58:00,37.6,22.5,30.18,ENE,71,0.0,1.0,54,0.00,,,0.00,LWC V2.00 B2112,2013-02-25 14:58:00,
2013-02-25 10:03:00,37.9,21.9,30.18,ENE,71,0.0,1.0,52,0.00,,,0.00,LWC V2.00 B2112,2013-02-25 15:03:00,
2013-02-25 10:08:00,37.9,21.4,30.19,ENE,76,0.0,2.0,51,0.00,,,0.00,LWC V2.00 B2112,2013-02-25 15:08:00,
2013-02-25 10:13:00,37.9,21.9,30.19,ENE,76,0.0,0.0,52,0.00,,,0.00,LWC V2.00 B2112,2013-02-25 15:13:00,
2013-02-25 10:18:00,38.2,23.0,30.19,East,88,0.0,2.0,54,0.00,,,0.00,LWC V2.00 B2112,2013-02-25 15:18:00,
2013-02-25 10:23:00,38.3,22.2,30.19,East,99,0.0,0.0,52,0.00,,,0.00,LWC V2.00 B2112,2013-02-25 15:23:00,
2013-02-25 10:28:00,38.6,23.0,30.19,NNE,26,0.0,1.0,53,0.00,,,0.00,LWC V2.00 B2112,2013-02-25 15:28:00,
2013-02-25 10:33:00,38.9,22.3,30.19,NE,47,0.0,1.0,51,0.00,,,0.00,LWC V2.00 B2112,2013-02-25 15:33:00,
2013-02-25 10:38:00,39.1,22.0,30.19,NE,47,0.0,0.0,50,0.00,,,0.00,LWC V2.00 B2112,2013-02-25 15:38:00,
2013-02-25 10:43:00,39.1,23.0,30.19,WSW,240,0.0,1.0,52,0.00,,,0.00,LWC V2.00 B2112,2013-02-25 15:43:00,
2013-02-25 10:48:00,39.2,21.7,30.19,ENE,71,0.0,0.0,49,0.00,,,0.00,LWC V2.00 B2112,2013-02-25 15:48:00,
2013-02-25 10:53:00,39.3,22.2,30.18,ENE,61,0.0,0.0,50,0.00,,,0.00,LWC V2.00 B2112,2013-02-25 15:53:00,
2013-02-25 10:58:00,39.6,23.0,30.18,West,278,0.0,1.0,51,0.00,,,0.00,LWC V2.00 B2112,2013-02-25 15:58:00,
2013-02-25 11:03:00,39.9,22.3,30.18,ENE,73,0.0,1.0,49,0.00,,,0.00,LWC V2.00 B2112,2013-02-25 16:03:00,
2013-02-25 11:08:00,39.9,22.3,30.18,NNW,331,0.0,0.0,49,0.00,,,0.00,LWC V2.00 B2112,2013-02-25 16:08:00,
2013-02-25 11:13:00,39.9,23.7,30.18,NNW,331,0.0,1.0,52,0.00,,,0.00,LWC V2.00 B2112,2013-02-25 16:13:00,
2013-02-25 11:18:00,40.1,23.4,30.18,East,82,1.0,2.0,51,0.00,,,0.00,LWC V2.00 B2112,2013-02-25 16:18:00,
2013-02-25 11:23:00,40.3,23.6,30.18,NNW,329,0.0,0.0,51,0.00,,,0.00,LWC V2.00 B2112,2013-02-25 16:23:00,
2013-02-25 11:28:00,40.5,22.4,30.18,NNW,329,0.0,1.0,48,0.00,,,0.00,LWC V2.00 B2112,2013-02-25 16:28:00,
2013-02-25 11:33:00,40.6,22.5,30.18,NE,38,0.0,1.0,48,0.00,,,0.00,LWC V2.00 B2112,2013-02-25 16:33:00,
2013-02-25 11:38:00,40.6,22.5,30.17,NNE,22,0.0,0.0,48,0.00,,,0.00,LWC V2.00 B2112,2013-02-25 16:38:00,
2013-02-25 11:43:00,40.6,22.0,30.17,NNE,23,0.0,0.0,47,0.00,,,0.00,LWC V2.00 B2112,2013-02-25 16:43:00,
2013-02-25 11:48:00,40.8,22.6,30.17,NNE,14,0.0,2.0,48,0.00,,,0.00,LWC V2.00 B2112,2013-02-25 16:48:00,
2013-02-25 11:53:00,40.9,22.2,30.17,ENE,67,0.0,1.0,47,0.00,,,0.00,LWC V2.00 B2112,2013-02-25 16:53:00,
2013-02-25 11:58:00,40.9,22.7,30.17,ENE,69,0.0,0.0,48,0.00,,,0.00,LWC V2.00 B2112,2013-02-25 16:58:00,
2013-02-25 12:03:00,41.2,22.5,30.17,East,82,0.0,2.0,47,0.00,,,0.00,LWC V2.00 B2112,2013-02-25 17:03:00,
2013-02-25 12:08:00,41.3,23.1,30.16,East,82,0.0,0.0,48,0.00,,,0.00,LWC V2.00 B2112,2013-02-25 17:08:00,
2013-02-25 12:13:00,41.6,23.4,30.16,East,82,1.0,1.0,48,0.00,,,0.00,LWC V2.00 B2112,2013-02-25 17:13:00,
2013-02-25 12:18:00,41.8,23.1,30.16,West,262,0.0,0.0,47,0.00,,,0.00,LWC V2.00 B2112,2013-02-25 17:18:00,
2013-02-25 12:23:00,41.9,22.6,30.15,WSW,251,0.0,1.0,46,0.00,,,0.00,LWC V2.00 B2112,2013-02-25 17:23:00,
2013-02-25 12:28:00,41.6,22.4,30.15,WSW,240,0.0,0.0,46,0.00,,,0.00,LWC V2.00 B2112,2013-02-25 17:28:00,
2013-02-25 12:33:00,41.8,24.1,30.15,East,96,0.0,1.0,49,0.00,,,0.00,LWC V2.00 B2112,2013-02-25 17:33:00,
2013-02-25 12:38:00,42.1,23.3,30.15,ENE,76,0.0,1.0,47,0.00,,,0.00,LWC V2.00 B2112,2013-02-25 17:38:00,
2013-02-25 12:43:00,42.3,22.0,30.15,ENE,71,0.0,2.0,44,0.00,,,0.00,LWC V2.00 B2112,2013-02-25 17:43:00,
2013-02-25 12:48:00,42.3,22.5,30.15,ENE,68,0.0,2.0,45,0.00,,,0.00,LWC V2.00 B2112,2013-02-25 17:48:00,
2013-02-25 12:53:00,42.3,23.5,30.14,ENE,77,0.0,0.0,47,0.00,,,0.00,LWC V2.00 B2112,2013-02-25 17:53:00,
2013-02-25 12:58:00,42.3,23.5,30.14,ENE,77,0.0,0.0,47,0.00,,,0.00,LWC V2.00 B2112,2013-02-25 17:58:00,
2013-02-25 13:03:00,42.5,23.7,30.14,ENE,77,0.0,0.0,47,0.00,,,0.00,LWC V2.00 B2112,2013-02-25 18:03:00,
2013-02-25 13:08:00,42.5,23.2,30.13,ENE,77,0.0,0.0,46,0.00,,,0.00,LWC V2.00 B2112,2013-02-25 18:08:00,
2013-02-25 13:13:00,42.5,23.2,30.13,East,84,0.0,1.0,46,0.00,,,0.00,LWC V2.00 B2112,2013-02-25 18:13:00,
2013-02-25 13:18:00,42.5,22.7,30.13,East,82,0.0,0.0,45,0.00,,,0.00,LWC V2.00 B2112,2013-02-25 18:18:00,
2013-02-25 13:23:00,42.5,22.1,30.13,East,82,0.0,0.0,44,0.00,,,0.00,LWC V2.00 B2112,2013-02-25 18:23:00,
2013-02-25 13:28:00,42.6,21.7,30.13,NNE,23,0.0,0.0,43,0.00,,,0.00,LWC V2.00 B2112,2013-02-25 18:28:00,
2013-02-25 13:33:00,42.6,21.7,30.13,ENE,57,0.0,1.0,43,0.00,,,0.00,LWC V2.00 B2112,2013-02-25 18:33:00,
2013-02-25 13:38:00,42.6,22.8,30.13,NNE,29,0.0,1.0,45,0.00,,,0.00,LWC V2.00 B2112,2013-02-25 18:38:00,
2013-02-25 13:43:00,42.5,22.7,30.13,NNE,30,0.0,0.0,45,0.00,,,0.00,LWC V2.00 B2112,2013-02-25 18:43:00,
2013-02-25 13:48:00,42.3,22.0,30.13,North,0,0.0,1.0,44,0.00,,,0.00,LWC V2.00 B2112,2013-02-25 18:48:00,
2013-02-25 13:53:00,42.3,23.5,30.13,North,0,0.0,0.0,47,0.00,,,0.00,LWC V2.00 B2112,2013-02-25 18:53:00,
2013-02-25 13:58:00,42.3,22.5,30.13,North,0,0.0,0.0,45,0.00,,,0.00,LWC V2.00 B2112,2013-02-25 18:58:00,
2013-02-25 14:03:00,42.3,22.5,30.13,North,0,0.0,0.0,45,0.00,,,0.00,LWC V2.00 B2112,2013-02-25 19:03:00,
2013-02-25 14:08:00,42.2,23.4,30.14,North,0,0.0,0.0,47,0.00,,,0.00,LWC V2.00 B2112,2013-02-25 19:08:00,
2013-02-25 14:13:00,42.2,22.4,30.14,North,0,0.0,0.0,45,0.00,,,0.00,LWC V2.00 B2112,2013-02-25 19:13:00,
2013-02-25 14:18:00,42.3,22.0,30.14,North,0,0.0,0.0,44,0.00,,,0.00,LWC V2.00 B2112,2013-02-25 19:18:00,
2013-02-25 14:23:00,42.3,23.5,30.13,North,0,0.0,0.0,47,0.00,,,0.00,LWC V2.00 B2112,2013-02-25 19:23:00,
2013-02-25 14:28:00,42.6,22.8,30.13,North,0,0.0,1.0,45,0.00,,,0.00,LWC V2.00 B2112,2013-02-25 19:28:00,
2013-02-25 14:33:00,42.8,24.0,30.12,North,0,0.0,0.0,47,0.00,,,0.00,LWC V2.00 B2112,2013-02-25 19:33:00,
2013-02-25 14:38:00,42.8,22.9,30.12,North,0,0.0,0.0,45,0.00,,,0.00,LWC V2.00 B2112,2013-02-25 19:38:00,
2013-02-25 14:43:00,42.8,22.9,30.12,North,0,0.0,0.0,45,0.00,,,0.00,LWC V2.00 B2112,2013-02-25 19:43:00,
2013-02-25 14:48:00,42.8,22.9,30.12,North,0,0.0,0.0,45,0.00,,,0.00,LWC V2.00 B2112,2013-02-25 19:48:00,
2013-02-25 14:53:00,42.8,24.0,30.12,North,0,0.0,0.0,47,0.00,,,0.00,LWC V2.00 B2112,2013-02-25 19:53:00,
2013-02-25 14:58:00,42.8,22.9,30.12,North,0,0.0,0.0,45,0.00,,,0.00,LWC V2.00 B2112,2013-02-25 19:58:00,
2013-02-25 15:03:00,42.9,24.1,30.12,North,0,0.0,0.0,47,0.00,,,0.00,LWC V2.00 B2112,2013-02-25 20:03:00,
2013-02-25 15:08:00,42.9,23.0,30.12,North,0,0.0,0.0,45,0.00,,,0.00,LWC V2.00 B2112,2013-02-25 20:08:00,
2013-02-25 15:13:00,42.8,22.9,30.12,North,0,0.0,0.0,45,0.00,,,0.00,LWC V2.00 B2112,2013-02-25 20:13:00,
2013-02-25 15:18:00,42.8,24.0,30.13,North,0,0.0,0.0,47,0.00,,,0.00,LWC V2.00 B2112,2013-02-25 20:18:00,
2013-02-25 15:23:00,42.6,22.8,30.13,North,0,0.0,0.0,45,0.00,,,0.00,LWC V2.00 B2112,2013-02-25 20:23:00,
2013-02-25 15:28:00,42.6,23.3,30.13,North,0,0.0,0.0,46,0.00,,,0.00,LWC V2.00 B2112,2013-02-25 20:28:00,
2013-02-25 15:33:00,42.6,22.8,30.12,North,0,0.0,0.0,45,0.00,,,0.00,LWC V2.00 B2112,2013-02-25 20:33:00,
2013-02-25 15:38:00,42.6,24.3,30.12,North,0,0.0,0.0,48,0.00,,,0.00,LWC V2.00 B2112,2013-02-25 20:38:00,
2013-02-25 15:43:00,42.6,23.8,30.12,North,0,0.0,1.0,47,0.00,,,0.00,LWC V2.00 B2112,2013-02-25 20:43:00,
2013-02-25 15:48:00,42.5,23.7,30.11,North,0,0.0,0.0,47,0.00,,,0.00,LWC V2.00 B2112,2013-02-25 20:48:00,
2013-02-25 15:53:00,42.3,22.5,30.11,North,0,0.0,0.0,45,0.00,,,0.00,LWC V2.00 B2112,2013-02-25 20:53:00,
2013-02-25 15:58:00,42.3,23.5,30.11,North,0,0.0,0.0,47,0.00,,,0.00,LWC V2.00 B2112,2013-02-25 20:58:00,
2013-02-25 16:03:00,42.3,23.5,30.10,North,0,0.0,0.0,47,0.00,,,0.00,LWC V2.00 B2112,2013-02-25 21:03:00,
2013-02-25 16:08:00,42.2,23.4,30.10,North,0,0.0,0.0,47,0.00,,,0.00,LWC V2.00 B2112,2013-02-25 21:08:00,
2013-02-25 16:13:00,42.1,23.8,30.10,North,0,0.0,0.0,48,0.00,,,0.00,LWC V2.00 B2112,2013-02-25 21:13:00,
2013-02-25 16:18:00,42.1,23.8,30.11,North,0,0.0,0.0,48,0.00,,,0.00,LWC V2.00 B2112,2013-02-25 21:18:00,
2013-02-25 16:23:00,41.9,24.1,30.11,North,0,0.0,0.0,49,0.00,,,0.00,LWC V2.00 B2112,2013-02-25 21:23:00,
2013-02-25 16:28:00,41.9,25.1,30.11,North,0,0.0,0.0,51,0.00,,,0.00,LWC V2.00 B2112,2013-02-25 21:28:00,
2013-02-25 16:33:00,41.9,25.1,30.12,North,0,0.0,0.0,51,0.00,,,0.00,LWC V2.00 B2112,2013-02-25 21:33:00,
2013-02-25 16:38:00,41.8,24.5,30.12,North,0,0.0,0.0,50,0.00,,,0.00,LWC V2.00 B2112,2013-02-25 21:38:00,
2013-02-25 16:43:00,41.8,24.1,30.12,North,0,0.0,0.0,49,0.00,,,0.00,LWC V2.00 B2112,2013-02-25 21:43:00,
2013-02-25 16:48:00,41.6,24.4,30.12,North,0,0.0,0.0,50,0.00,,,0.00,LWC V2.00 B2112,2013-02-25 21:48:00,
2013-02-25 16:53:00,41.6,23.9,30.12,North,0,0.0,0.0,49,0.00,,,0.00,LWC V2.00 B2112,2013-02-25 21:53:00,
2013-02-25 16:58:00,41.5,23.8,30.12,North,0,0.0,0.0,49,0.00,,,0.00,LWC V2.00 B2112,2013-02-25 21:58:00,
2013-02-25 17:03:00,41.3,25.0,30.11,North,0,0.0,0.0,52,0.00,,,0.00,LWC V2.00 B2112,2013-02-25 22:03:00,
2013-02-25 17:08:00,41.2,25.4,30.11,North,0,0.0,0.0,53,0.00,,,0.00,LWC V2.00 B2112,2013-02-25 22:08:00,
2013-02-25 17:13:00,41.2,24.9,30.11,North,0,0.0,0.0,52,0.00,,,0.00,LWC V2.00 B2112,2013-02-25 22:13:00,
2013-02-25 17:18:00,41.1,24.8,30.11,North,0,0.0,0.0,52,0.00,,,0.00,LWC V2.00 B2112,2013-02-25 22:18:00,
2013-02-25 17:23:00,40.9,25.6,30.11,North,0,0.0,0.0,54,0.00,,,0.00,LWC V2.00 B2112,2013-02-25 22:23:00,
2013-02-25 17:28:00,40.8,25.0,30.11,North,0,0.0,0.0,53,0.00,,,0.00,LWC V2.00 B2112,2013-02-25 22:28:00,
2013-02-25 17:33:00,40.8,25.9,30.11,North,0,0.0,0.0,55,0.00,,,0.00,LWC V2.00 B2112,2013-02-25 22:33:00,
2013-02-25 17:38:00,40.6,25.7,30.11,North,0,0.0,0.0,55,0.00,,,0.00,LWC V2.00 B2112,2013-02-25 22:38:00,
2013-02-25 17:43:00,40.5,26.1,30.11,North,0,0.0,0.0,56,0.00,,,0.00,LWC V2.00 B2112,2013-02-25 22:43:00,
2013-02-25 17:48:00,40.3,25.9,30.12,North,0,0.0,0.0,56,0.00,,,0.00,LWC V2.00 B2112,2013-02-25 22:48:00,
2013-02-25 17:53:00,40.2,25.3,30.12,North,0,0.0,0.0,55,0.00,,,0.00,LWC V2.00 B2112,2013-02-25 22:53:00,
2013-02-25 17:58:00,40.1,26.1,30.12,North,0,0.0,0.0,57,0.00,,,0.00,LWC V2.00 B2112,2013-02-25 22:58:00,
2013-02-25 18:03:00,40.1,25.7,30.12,North,0,0.0,0.0,56,0.00,,,0.00,LWC V2.00 B2112,2013-02-25 23:03:00,
2013-02-25 18:08:00,39.9,25.5,30.12,North,0,0.0,0.0,56,0.00,,,0.00,LWC V2.00 B2112,2013-02-25 23:08:00,
2013-02-25 18:13:00,39.8,26.2,30.12,North,0,0.0,0.0,58,0.00,,,0.00,LWC V2.00 B2112,2013-02-25 23:13:00,
2013-02-25 18:18:00,39.6,26.1,30.12,North,0,0.0,0.0,58,0.00,,,0.00,LWC V2.00 B2112,2013-02-25 23:18:00,
2013-02-25 18:23:00,39.5,26.4,30.12,North,0,0.0,0.0,59,0.00,,,0.00,LWC V2.00 B2112,2013-02-25 23:23:00,
2013-02-25 18:28:00,39.2,26.1,30.12,North,0,0.0,0.0,59,0.00,,,0.00,LWC V2.00 B2112,2013-02-25 23:28:00,
2013-02-25 18:33:00,39.1,26.8,30.12,North,0,0.0,0.0,61,0.00,,,0.00,LWC V2.00 B2112,2013-02-25 23:33:00,
2013-02-25 18:38:00,38.8,26.1,30.12,North,0,0.0,0.0,60,0.00,,,0.00,LWC V2.00 B2112,2013-02-25 23:38:00,
2013-02-25 18:43:00,38.6,26.7,30.12,North,0,0.0,0.0,62,0.00,,,0.00,LWC V2.00 B2112,2013-02-25 23:43:00,
2013-02-25 18:48:00,38.5,26.6,30.12,North,0,0.0,0.0,62,0.00,,,0.00,LWC V2.00 B2112,2013-02-25 23:48:00,
2013-02-25 18:53:00,38.3,26.4,30.12,North,0,0.0,0.0,62,0.00,,,0.00,LWC V2.00 B2112,2013-02-25 23:53:00,
2013-02-25 18:58:00,38.0,26.5,30.12,North,0,0.0,0.0,63,0.00,,,0.00,LWC V2.00 B2112,2013-02-25 23:58:00,
2013-02-25 19:03:00,37.9,26.8,30.12,North,0,0.0,0.0,64,0.00,,,0.00,LWC V2.00 B2112,2013-02-26 00:03:00,
2013-02-25 19:08:00,37.8,27.1,30.12,North,0,0.0,0.0,65,0.00,,,0.00,LWC V2.00 B2112,2013-02-26 00:08:00,
2013-02-25 19:13:00,37.5,26.4,30.12,North,0,0.0,0.0,64,0.00,,,0.00,LWC V2.00 B2112,2013-02-26 00:13:00,
2013-02-25 19:18:00,37.3,27.0,30.13,North,0,0.0,0.0,66,0.00,,,0.00,LWC V2.00 B2112,2013-02-26 00:18:00,
2013-02-25 19:23:00,37.0,26.7,30.13,North,0,0.0,0.0,66,0.00,,,0.00,LWC V2.00 B2112,2013-02-26 00:23:00,
2013-02-25 19:28:00,36.8,26.9,30.13,North,0,0.0,0.0,67,0.00,,,0.00,LWC V2.00 B2112,2013-02-26 00:28:00,
2013-02-25 19:33:00,36.6,26.3,30.13,North,0,0.0,0.0,66,0.00,,,0.00,LWC V2.00 B2112,2013-02-26 00:33:00,
2013-02-25 19:38:00,36.3,26.4,30.13,North,0,0.0,0.0,67,0.00,,,0.00,LWC V2.00 B2112,2013-02-26 00:38:00,
2013-02-25 19:43:00,36.2,26.7,30.13,North,0,0.0,0.0,68,0.00,,,0.00,LWC V2.00 B2112,2013-02-26 00:43:00,
2013-02-25 19:48:00,36.0,26.5,30.14,North,0,0.0,0.0,68,0.00,,,0.00,LWC V2.00 B2112,2013-02-26 00:48:00,
2013-02-25 19:53:00,35.9,26.7,30.14,North,0,0.0,0.0,69,0.00,,,0.00,LWC V2.00 B2112,2013-02-26 00:53:00,
2013-02-25 19:58:00,35.6,26.8,30.14,North,0,0.0,0.0,70,0.00,,,0.00,LWC V2.00 B2112,2013-02-26 00:58:00,
2013-02-25 20:03:00,35.5,27.0,30.13,North,0,0.0,0.0,71,0.00,,,0.00,LWC V2.00 B2112,2013-02-26 01:03:00,
2013-02-25 20:08:00,35.2,27.1,30.13,North,0,0.0,0.0,72,0.00,,,0.00,LWC V2.00 B2112,2013-02-26 01:08:00,
2013-02-25 20:13:00,35.0,26.9,30.13,North,0,0.0,0.0,72,0.00,,,0.00,LWC V2.00 B2112,2013-02-26 01:13:00,
2013-02-25 20:18:00,34.9,27.1,30.14,North,0,0.0,0.0,73,0.00,,,0.00,LWC V2.00 B2112,2013-02-26 01:18:00,
2013-02-25 20:23:00,34.6,26.9,30.14,North,0,0.0,0.0,73,0.00,,,0.00,LWC V2.00 B2112,2013-02-26 01:23:00,
2013-02-25 20:28:00,34.3,26.9,30.14,North,0,0.0,0.0,74,0.00,,,0.00,LWC V2.00 B2112,2013-02-26 01:28:00,
2013-02-25 20:33:00,34.0,26.6,30.14,North,0,0.0,0.0,74,0.00,,,0.00,LWC V2.00 B2112,2013-02-26 01:33:00,
2013-02-25 20:38:00,33.8,26.7,30.14,North,0,0.0,0.0,75,0.00,,,0.00,LWC V2.00 B2112,2013-02-26 01:38:00,
2013-02-25 20:43:00,33.7,26.6,30.14,North,0,0.0,0.0,75,0.00,,,0.00,LWC V2.00 B2112,2013-02-26 01:43:00,
2013-02-25 20:48:00,33.5,26.4,30.14,North,0,0.0,0.0,75,0.00,,,0.00,LWC V2.00 B2112,2013-02-26 01:48:00,
2013-02-25 20:53:00,33.2,26.1,30.14,North,0,0.0,0.0,75,0.00,,,0.00,LWC V2.00 B2112,2013-02-26 01:53:00,
2013-02-25 20:58:00,33.1,26.1,30.14,North,0,0.0,0.0,75,0.00,,,0.00,LWC V2.00 B2112,2013-02-26 01:58:00,
2013-02-25 21:03:00,33.1,26.4,30.14,North,0,0.0,0.0,76,0.00,,,0.00,LWC V2.00 B2112,2013-02-26 02:03:00,
2013-02-25 21:08:00,32.9,26.2,30.14,North,0,0.0,0.0,76,0.00,,,0.00,LWC V2.00 B2112,2013-02-26 02:08:00,
2013-02-25 21:13:00,32.8,26.4,30.14,North,0,0.0,0.0,77,0.00,,,0.00,LWC V2.00 B2112,2013-02-26 02:13:00,
2013-02-25 21:18:00,32.7,26.3,30.14,North,0,0.0,0.0,77,0.00,,,0.00,LWC V2.00 B2112,2013-02-26 02:18:00,
2013-02-25 21:23:00,32.5,26.1,30.14,North,0,0.0,0.0,77,0.00,,,0.00,LWC V2.00 B2112,2013-02-26 02:23:00,
2013-02-25 21:28:00,32.4,26.3,30.14,North,0,0.0,0.0,78,0.00,,,0.00,LWC V2.00 B2112,2013-02-26 02:28:00,
2013-02-25 21:33:00,32.4,26.3,30.14,North,0,0.0,0.0,78,0.00,,,0.00,LWC V2.00 B2112,2013-02-26 02:33:00,
2013-02-25 21:38:00,32.2,26.1,30.14,North,0,0.0,0.0,78,0.00,,,0.00,LWC V2.00 B2112,2013-02-26 02:38:00,
2013-02-25 21:43:00,32.1,26.3,30.14,North,0,0.0,0.0,79,0.00,,,0.00,LWC V2.00 B2112,2013-02-26 02:43:00,
2013-02-25 21:48:00,31.9,26.1,30.13,North,0,0.0,0.0,79,0.00,,,0.00,LWC V2.00 B2112,2013-02-26 02:48:00,
2013-02-25 21:53:00,31.8,26.3,30.13,North,0,0.0,0.0,80,0.00,,,0.00,LWC V2.00 B2112,2013-02-26 02:53:00,
2013-02-25 21:58:00,31.6,26.2,30.13,North,0,0.0,0.0,80,0.00,,,0.00,LWC V2.00 B2112,2013-02-26 02:58:00,
2013-02-25 22:03:00,31.5,26.1,30.12,North,0,0.0,0.0,80,0.00,,,0.00,LWC V2.00 B2112,2013-02-26 03:03:00,
2013-02-25 22:08:00,31.5,26.1,30.12,North,0,0.0,0.0,80,0.00,,,0.00,LWC V2.00 B2112,2013-02-26 03:08:00,
2013-02-25 22:13:00,31.3,26.2,30.12,North,0,0.0,0.0,81,0.00,,,0.00,LWC V2.00 B2112,2013-02-26 03:13:00,
2013-02-25 22:18:00,31.3,26.2,30.12,North,0,0.0,0.0,81,0.00,,,0.00,LWC V2.00 B2112,2013-02-26 03:18:00,
2013-02-25 22:23:00,31.3,26.2,30.12,North,0,0.0,0.0,81,0.00,,,0.00,LWC V2.00 B2112,2013-02-26 03:23:00,
2013-02-25 22:28:00,31.3,26.2,30.12,North,0,0.0,0.0,81,0.00,,,0.00,LWC V2.00 B2112,2013-02-26 03:28:00,
2013-02-25 22:33:00,31.3,26.2,30.12,North,0,0.0,0.0,81,0.00,,,0.00,LWC V2.00 B2112,2013-02-26 03:33:00,
2013-02-25 22:38:00,31.3,26.5,30.12,North,0,0.0,0.0,82,0.00,,,0.00,LWC V2.00 B2112,2013-02-26 03:38:00,
2013-02-25 22:43:00,31.3,26.5,30.12,North,0,0.0,0.0,82,0.00,,,0.00,LWC V2.00 B2112,2013-02-26 03:43:00,
2013-02-25 22:48:00,31.5,26.9,30.11,North,0,0.0,0.0,83,0.00,,,0.00,LWC V2.00 B2112,2013-02-26 03:48:00,
2013-02-25 22:53:00,31.6,27.0,30.11,North,0,0.0,0.0,83,0.00,,,0.00,LWC V2.00 B2112,2013-02-26 03:53:00,
2013-02-25 22:58:00,31.6,27.0,30.11,North,0,0.0,0.0,83,0.00,,,0.00,LWC V2.00 B2112,2013-02-26 03:58:00,
2013-02-25 23:03:00,31.8,27.2,30.11,North,0,0.0,0.0,83,0.00,,,0.00,LWC V2.00 B2112,2013-02-26 04:03:00,
2013-02-25 23:08:00,31.8,27.2,30.11,North,0,0.0,0.0,83,0.00,,,0.00,LWC V2.00 B2112,2013-02-26 04:08:00,
2013-02-25 23:13:00,32.1,27.2,30.11,North,0,0.0,0.0,82,0.00,,,0.00,LWC V2.00 B2112,2013-02-26 04:13:00,
2013-02-25 23:18:00,32.4,26.9,30.10,North,0,0.0,0.0,80,0.00,,,0.00,LWC V2.00 B2112,2013-02-26 04:18:00,
2013-02-25 23:23:00,32.7,26.9,30.10,North,0,0.0,0.0,79,0.00,,,0.00,LWC V2.00 B2112,2013-02-26 04:23:00,
2013-02-25 23:28:00,32.9,26.8,30.10,North,0,0.0,1.0,78,0.00,,,0.00,LWC V2.00 B2112,2013-02-26 04:28:00,
2013-02-25 23:33:00,33.2,26.8,30.09,North,0,0.0,0.0,77,0.00,,,0.00,LWC V2.00 B2112,2013-02-26 04:33:00,
2013-02-25 23:38:00,33.5,26.8,30.09,NNE,19,0.0,0.0,76,0.00,,,0.00,LWC V2.00 B2112,2013-02-26 04:38:00,
2013-02-25 23:43:00,33.8,26.7,30.09,NNE,19,0.0,0.0,75,0.00,,,0.00,LWC V2.00 B2112,2013-02-26 04:43:00,
2013-02-25 23:48:00,34.0,27.2,30.10,NNE,19,0.0,0.0,76,0.00,,,0.00,LWC V2.00 B2112,2013-02-26 04:48:00,
2013-02-25 23:53:00,34.1,27.3,30.10,NNE,19,0.0,0.0,76,0.00,,,0.00,LWC V2.00 B2112,2013-02-26 04:53:00,
2013-02-25 23:58:00,34.3,27.5,30.10,NNE,19,0.0,0.0,76,0.00,,,0.00,LWC V2.00 B2112,2013-02-26 04:58:00,